Location: Freiburg+im+Breisgau
(48.0359°N, 7.8195°E)
Time: 00:33:50
(UTC+02:00)

ISS - Pass Details

Date: 04 January 2018
Orbit: 402 x 408 km, 51.6° (Epoch: 22 July)

Event Time Altitude Azimuth Distance (km) Brightness Sun altitude
Exits shadow 05:27:43 19° 65° (ENE) 1,060 -1.1 -27.5°
Drops below altitude 10° 05:28:49 10° 67° (ENE) 1,501 -0.2 -27.3°
Sets 05:30:56 0° 68° (ENE) 2,370 1.0 -27.0°
